Simultaneous Nadir Overpasses (SNOs) Predictions

Prediction of SNOs between LANDSAT-8 and METOP-B Satellite Orbit:

Table of predicted SNOs for the next 14.0 days since TLE Epoch: 10/1/2016
Index Date (LANDSAT-8) Time (LANDSAT-8) Lat,Lon (LANDSAT-8) SZA (LANDSAT-8 ) Date (METOP-B) Time (METOP-B) Lat,Lon (METOP-B) SZA (METOP-B ) Distance(km) Time Diff (sec)
1 10/03/2016 10:55:39 -81.08,-124.56 92.45 10/03/2016 10:55:21 -81.09,-124.42 92.43 2.42 18
2 10/03/2016 11:45:04 81.11, 43.53 87.64 10/03/2016 11:46:00 81.11, 43.56 87.67 0.52 56
3 10/06/2016 06:29:55 -81.09, -57.93 91.32 10/06/2016 06:29:44 -81.10, -57.75 91.30 3.07 11
4 10/06/2016 07:19:20 81.12, 110.13 88.77 10/06/2016 07:20:23 81.12, 110.23 88.80 1.69 63
5 10/09/2016 02:04:11 -81.08, 8.28 90.26 10/09/2016 02:04:08 -81.08, 8.15 90.28 2.35 3
6 10/09/2016 02:53:36 81.11, 176.32 89.82 10/09/2016 02:54:46 81.11, 176.50 89.87 3.28 70
7 10/11/2016 20:49:01 81.06, -93.23 90.76 10/11/2016 20:47:52 81.06, -93.28 90.73 0.82 69
8 10/11/2016 21:38:27 -81.08, 74.80 89.17 10/11/2016 21:38:31 -81.09, 74.76 89.17 0.61 4
9 10/14/2016 16:23:17 81.06, -26.79 91.82 10/14/2016 16:22:15 81.07, -26.69 91.81 1.98 62




NCC Satellite Simultaneous Nadir Overpasses (SNOs) Prediction Service
